DELTA 1 DEB, 7051

Orbit data source: Space-Track

DELTA 1 DEB, 7051 is space debris in SSO originally from a launch on Tue, 06 Nov 1973 UTC launched from the Air Force Western Test Range (AFWTR). Debris objects in space refer to the collection of defunct objects orbiting the Earth. Examples of debris include non-operational satellites, rocket bodies, and fragments generated from explosions, collisions, or faulty payload assembly.

Loading next visibility...
Identifier
7051, 1973-086AT
Orbit
SSO
Country
Flag of USUS
Related business
Manufacturer
Unknown
Mission
Spacecraft
Bus & Motor
Unknown
Mass
Unknown
Launch date (UTC)
1973-11-06 (53 years ago)
Launch vehicle
Unknown
Launch site
Air Force Western Test Range (AFWTR)
Object type
Payload
Rocket body
Debris
Shape & HBR
Unknown shape, 0.1 m
Radar Cross Section
Medium (>0.1 m² and <1 m²)

Expand to show TLE details & history
Last TLE update: 17 hours ago

TLE from 17 hours ago
0 DELTA 1 DEB
1 07051U 73086AT  26255.02913197 -.00000007  00000-0  33886-3 0  9998
2 07051 102.5142 279.8786 0065580 304.3365  82.2784 12.28992732363384
Epoch: 2026-09-12T00:41Z
TLE epoch observation values (Epoch: 2026-09-12T00:41:57.002Z)
Latitude
26.6942°
Longitude
-88.02937°
Altitude
1,549.862 km
Speed
7.097 km/s
True Right ascension
18h 14m 00s
True Declination
26° 34' 13"
Sunlit
Object was in daylight at epoch
Visualization orbit readout
Latitude
Unknown
Longitude
Unknown
Altitude
Unknown
Speed
Unknown
Apparent Right ascension
Unknown
Apparent Declination
Unknown
Sunlit
N/A
Visualization observer readout
Local Sidereal Time
10:17:14
Azimuth
Unknown
Elevation
Unknown
Doppler factor
Unknown
Orbital elements
Apogee altitude
1,603.233 km
Perigee altitude
1,499.231 km
Semi-major axis
7,929.369 km
Eccentricity
0.00656
Inclination
102.5142°
RAAN
279.8786°
Arg. of periapsis
304.3365°
True anomaly
83.02388°
Mean anomaly
82.2784°
Eccentric anomaly
82.65106°
Mean motion
3.07387 °/min
Orbital period
117.12 mins
BSTAR
0.00033886
Loading maneuver chart data...
Computing Atmospheric mass density...
Loading historical data...
Loading historical data...
Loading historical data...
Loading historical data...
Loading historical data...
Loading historical data...
Loading historical data...

Documentation

Showing up to 5 results
|